• Processing (Info)

  • MPEC 2014-R49 : 2014 QJ433

    The following Minor Planet Electronic Circular may be linked-to from your own Web pages, but must not otherwise be redistributed electronically.

    A form allowing access to any MPEC is at the bottom of this page.


    Read MPEC 2014-R48 Read MPEC 2014-R50


    M.P.E.C. 2014-R49                                Issued 2014 Sept. 5, 14:10 UT
    
         The Minor Planet Electronic Circulars contain information on unusual
             minor planets and routine data on comets.  They are published
       on behalf of Commission 20 of the International Astronomical Union by the
              Minor Planet Center, Smithsonian Astrophysical Observatory,
                              Cambridge, MA 02138, U.S.A.
    
                 Prepared using the Tamkin Foundation Computer Network
    
                                  MPC@CFA.HARVARD.EDU
                URL https://www.minorplanetcenter.net/    ISSN 1523-6714
    
                                      2014 QJ433
    
    Observations:
         K14Qh3J* C2014 08 25.50487 00 57 05.028-19 52 09.01         21.9 wLER049F51
         K14Qh3J  C2014 08 25.51546 00 57 04.080-19 52 13.67         21.7 wLER049F51
         K14Qh3J  C2014 08 25.52605 00 57 03.089-19 52 18.15         21.9 wLER049F51
         K14Qh3J  C2014 08 25.53664 00 57 02.112-19 52 22.79         21.7 wLER049F51
         K14Qh3J =C2014 08 26.42352 00 55 42.55 -19 58 45.9          21.2 RtER049568
         K14Qh3J =C2014 08 26.42477 00 55 42.44 -19 58 46.5          21.2 RtER049568
         K14Qh3J =C2014 08 26.42603 00 55 42.30 -19 58 46.7          20.5 RtER049568
         K14Qh3J  C2014 08 26.52937 00 55 32.63 -19 59 32.2          21.3 RtER049F51
         K14Qh3J  C2014 08 26.55206 00 55 30.49 -19 59 42.0          21.7 RtER049F51
         K14Qh3J 2C2014 08 29.47608200 50 51.452-20 20 20.92         21.8 RtER049568
         K14Qh3J 2C2014 08 29.47875500 50 51.173-20 20 22.05         21.7 RtER049568
         K14Qh3J KC2014 09 05.47135 00 38 19.17 -21 05 15.3          21.5 RoER049291
         K14Qh3J KC2014 09 05.47389 00 38 18.83 -21 05 16.4          21.3 RoER049291
         K14Qh3J KC2014 09 05.47644 00 38 18.52 -21 05 17.5          21.0 RoER049291
    
    Observer details:
    291 LPL/Spacewatch II.  Observer J. V. Scotti.  1.8-m f/2.7 reflector + CCD.
    568 Mauna Kea.  Observers R. J. Wainscoat, L. Wells, D. J. Tholen.  Measurers
        P. Veres, R. J. Wainscoat, D. J. Tholen.  2.24-m University of Hawaii
        reflector, 3.6-m Canada-France-Hawaii Telescope + CCD.
    F51 Pan-STARRS 1, Haleakala.  Observers N. Primak, A. Schultz, T. Goggia,
        M. Willman.  Measurers B. Bolin, K. Chambers, S. Chastel, L. Denneau,
        H. Flewelling, M. Huber, E. Magnier, E. Schunova, R. Wainscoat, C. Waters,
        P. Veres.  1.8-m Ritchey-Chretien + CCD.
    
    Orbital elements:
    2014 QJ433                                               Earth MOID = 0.3103 AU
    Epoch 2014 Dec. 9.0 TT = JDT 2457000.5                  MPC
    M 199.50426              (2000.0)            P               Q
    n   0.56870169     Peri.  164.04578     -0.99031062     -0.00615899
    a   1.4428229      Node    17.47303     -0.10205417     -0.64524172
    e   0.5323440      Incl.   27.51939     +0.09417970     -0.76395366
    P   1.73           H   18.7           G   0.15           U   7
    Residuals in seconds of arc
    140825 F51  0.2-  0.0     140826 568  0.0   0.1-    140829 568  0.1-  0.0
    140825 F51  0.1+  0.0     140826 568  0.3-  0.3+    140905 291  0.5+  0.2+
    140825 F51  0.2-  0.1+    140826 F51  0.4+  0.1-    140905 291  0.1-  0.0
    140825 F51  0.2-  0.1+    140826 F51  0.4+  0.1-    140905 291  0.3-  0.2-
    140826 568  0.1-  0.1-    140829 568  0.0   0.0
    
    Ephemeris:
    2014 QJ433               a,e,i = 1.44, 0.53, 28                  q = 0.6747
    Date    TT    R. A. (2000) Decl.     Delta      r     Elong.  Phase     V
    2014 08 06    01 16 53.4 -17 37 59   1.3784  2.0768   119.7    25.1    22.1
    ...
    2014 08 21    01 03 16.3 -19 19 14   1.2751  2.1178   135.4    19.6    21.8
    ...
    2014 08 29    00 51 38.3 -20 16 58   1.2355  2.1366   144.0    16.1    21.7
    ...
    2014 09 04    00 41 06.5 -20 56 26   1.2155  2.1492   150.1    13.5    21.6
    2014 09 05    00 39 13.4 -21 02 25   1.2130  2.1512   151.0    13.1    21.5
    2014 09 06    00 37 18.4 -21 08 11   1.2109  2.1532   151.9    12.7    21.5
    ...
    2014 09 12    00 25 13.6 -21 37 38   1.2037  2.1642   156.5    10.7    21.5
    ...
    2014 09 20    00 08 11.4 -21 59 36   1.2104  2.1771   158.7     9.6    21.4
    ...
    2014 10 05    23 37 31.9 -21 36 37   1.2748  2.1957   149.4    13.4    21.7
    
    A. U. Tomatic                (C) Copyright 2014 MPC           M.P.E.C. 2014-R49
    

    Read MPEC 2014-R48 Read MPEC 2014-R50


    MPEC number:

    Enter an MPEC number in one of the following forms:

    • 1997-B01 (the full form)
    • J97B01 (the packed version of the full form)
    • B01 (the abbreviated form)